Location: Horowhenua
(40.7500°S, 175.3333°E)
Time: 15:44:53
(UTC+00:00)

SL-24 DEB - Pass Details

Date: 23 September 2023
Orbit: 654 x 688 km, 92.0° (Epoch: 01 December)

Event Time Altitude Azimuth Distance (km) Brightness Sun altitude
Rises 14:29:48 0° 151° (SSE) 3,018 8.4 -38.4°
Reaches altitude 10° 14:34:05 10° 112° (ESE) 2,097 7.4 -37.8°
Maximum altitude 14:35:08 11° 99° (E) 2,048 7.2 -37.7°
Drops below altitude 10° 14:36:12 10° 86° (E) 2,093 7.2 -37.5°
Enters shadow 14:36:15 10° 85° (E) 2,097 7.2 -37.5°
